Location: Newark
(54.6833°N, 25.2833°E)
Time: 18:58:06
(UTC+00:00)

A-11 Canister half - Pass Details

Date: 23 January 2021
Orbit: 1525 x 1684 km, 47.3° (Epoch: 05 March)

Event Time Altitude Azimuth Distance (km) Brightness Sun altitude
Rises 16:56:00 0° 269° (W) 4,721 13.2 -19.2°
Reaches altitude 10° 16:59:06 10° 265° (W) 3,754 12.3 -19.7°
Maximum altitude 17:08:13 53° 192° (SSW) 1,900 9.5 -21.0°
Enters shadow 17:14:45 22° 126° (SE) 3,027 10.1 -21.9°
